,,,PA_Meas_PMT16A,,PR_Meas_QMR101_102,,RH_Meas_QMH101,,SR_Meas_QMS101,,TA_Meas_QMH101,,GenWind,,GenWind,
date,time,status,PA,status,PR,status,RH,status,SR,status,TA,status,DirAvg,status,SpdAvg,
2010-12-25, 00:00:04,VALID,1000.46,VALID,0,INVALID,163.754,VALID,0,VALID,23.3125,VALID,338,VALID,0,
2010-12-25, 00:01:04,VALID,1000.47,VALID,0,INVALID,163.746,VALID,0,VALID,23.332,VALID,338,VALID,0.348047,
2010-12-25, 00:02:04,VALID,1000.48,VALID,0,INVALID,163.792,VALID,0,VALID,23.2931,VALID,338,VALID,0.384375,
2010-12-25, 00:03:04,VALID,1000.49,VALID,0,INVALID,163.762,VALID,0,VALID,23.3125,VALID,338,VALID,0.305078,
2010-12-25, 00:04:04,VALID,1000.48,VALID,0,INVALID,163.769,VALID,0,VALID,23.3143,VALID,338,VALID,0.291406,
2010-12-25, 00:05:04,VALID,1000.48,VALID,0,INVALID,163.777,VALID,0,VALID,23.2931,VALID,338,VALID,0.427344,
2010-12-25, 00:06:04,VALID,1000.5,VALID,0,INVALID,163.769,VALID,0,VALID,23.3125,VALID,338,VALID,0.318359,
2010-12-25, 00:07:04,VALID,1000.5,VALID,0,INVALID,163.762,VALID,0,VALID,23.3125,VALID,338,VALID,0.161719,
2010-12-25, 00:08:04,VALID,1000.49,VALID,0,INVALID,163.769,VALID,0,VALID,23.3125,VALID,355,VALID,0.6625,
2010-12-25, 00:09:04,VALID,1000.49,VALID,0,INVALID,163.762,VALID,0.100563,VALID,23.3107,VALID,4,VALID,0.336719,
2010-12-25, 00:10:04,VALID,1000.48,VALID,0,INVALID,163.762,VALID,0.100563,VALID,23.3532,VALID,340,VALID,0.615625,
2010-12-25, 00:11:04,VALID,1000.47,VALID,0,INVALID,163.762,VALID,0,VALID,23.3302,VALID,336,VALID,0.0550781,
2010-12-25, 00:12:04,VALID,1000.51,VALID,0,INVALID,163.754,VALID,0,VALID,23.3904,VALID,336,VALID,0.362109,
2010-12-25, 00:13:04,VALID,1000.47,VALID,0,INVALID,163.754,VALID,0,VALID,23.3904,VALID,336,VALID,0.402344,
2010-12-25, 00:14:04,VALID,1000.49,VALID,0,INVALID,163.754,VALID,0,VALID,23.3904,VALID,336,VALID,0.395703,
2010-12-25, 00:15:04,VALID,1000.49,VALID,0,INVALID,163.746,VALID,0,VALID,23.3709,VALID,2,VALID,0.533203,
2010-12-25, 00:16:04,VALID,1000.51,VALID,0,INVALID,163.762,VALID,0,VALID,23.3904,VALID,2,VALID,0.38125,
2010-12-25, 00:17:04,VALID,1000.5,VALID,0,INVALID,163.769,VALID,0,VALID,23.4098,VALID,2,VALID,0.113281,
2010-12-25, 00:18:04,VALID,1000.5,VALID,0,INVALID,163.754,VALID,0,VALID,23.3904,VALID,2,VALID,0.0808594,
2010-12-25, 00:19:04,VALID,1000.49,VALID,0,INVALID,163.777,VALID,0.100563,VALID,23.4098,VALID,2,VALID,0.491016,
2010-12-25, 00:20:04,VALID,1000.46,VALID,0,INVALID,163.746,VALID,0,VALID,23.4311,VALID,2,VALID,0.306641,
2010-12-25, 00:21:04,VALID,1000.47,VALID,0,INVALID,163.769,VALID,0,VALID,23.4098,VALID,2,VALID,0.271484,
2010-12-25, 00:22:04,VALID,1000.46,VALID,0,INVALID,163.746,VALID,0,VALID,23.4311,VALID,2,VALID,0.328906,
2010-12-25, 00:23:04,VALID,1000.43,VALID,0,INVALID,163.769,VALID,0,VALID,23.3709,VALID,359,VALID,0.0515625,
2010-12-25, 00:24:04,VALID,1000.42,VALID,0,INVALID,163.762,VALID,0,VALID,23.4116,VALID,350,VALID,0.45625,
2010-12-25, 00:25:04,VALID,1000.39,VALID,0,INVALID,163.739,VALID,0,VALID,23.4487,VALID,350,VALID,0.428906,
2010-12-25, 00:26:04,VALID,1000.41,VALID,0,INVALID,163.739,VALID,0,VALID,23.4487,VALID,350,VALID,0.488672,
2010-12-25, 00:27:04,VALID,1000.4,VALID,0,INVALID,163.739,VALID,0.100563,VALID,23.4682,VALID,350,VALID,0.497266,
2010-12-25, 00:28:04,VALID,1000.38,VALID,0,INVALID,163.746,VALID,0,VALID,23.4877,VALID,351,VALID,0.64375,
2010-12-25, 00:29:04,VALID,1000.36,VALID,0,INVALID,163.746,VALID,0,VALID,23.4877,VALID,352,VALID,0.528516,
2010-12-25, 00:30:04,VALID,1000.36,VALID,0,INVALID,163.746,VALID,0,VALID,23.5071,VALID,338,VALID,0.666406,
2010-12-25, 00:31:04,VALID,1000.31,VALID,0,INVALID,163.762,VALID,0,VALID,23.5673,VALID,341,VALID,0.914844,
2010-12-25, 00:32:04,VALID,1000.28,VALID,0,INVALID,163.754,VALID,0,VALID,23.585,VALID,356,VALID,0.692578,
2010-12-25, 00:33:04,VALID,1000.3,VALID,0,INVALID,163.739,VALID,0,VALID,23.6239,VALID,345,VALID,0.855469,
2010-12-25, 00:34:04,VALID,1000.31,VALID,0,INVALID,163.777,VALID,0,VALID,23.6823,VALID,344,VALID,0.517187,
2010-12-25, 00:35:04,VALID,1000.24,VALID,0,INVALID,163.723,VALID,0,VALID,23.7425,VALID,344,VALID,0.0164062,
2010-12-25, 00:36:04,VALID,1000.23,VALID,0,INVALID,163.746,VALID,0,VALID,23.7619,VALID,344,VALID,0,
2010-12-25, 00:37:04,VALID,1000.23,VALID,0,INVALID,163.746,VALID,0,VALID,23.7814,VALID,344,VALID,0.176172,
2010-12-25, 00:38:04,VALID,1000.18,VALID,0,INVALID,163.754,VALID,0,VALID,23.8593,VALID,354,VALID,0.733203,
2010-12-25, 00:39:04,VALID,1000.16,VALID,0,INVALID,163.731,VALID,0,VALID,23.9159,VALID,349,VALID,0.685547,
2010-12-25, 00:40:04,VALID,1000.17,VALID,0,INVALID,163.716,VALID,0,VALID,23.9937,VALID,346,VALID,0.529688,
2010-12-25, 00:41:04,VALID,1000.16,VALID,0,INVALID,163.723,VALID,0,VALID,24.0734,VALID,346,VALID,0.499609,
2010-12-25, 00:42:04,VALID,1000.14,VALID,0,INVALID,163.708,VALID,0,VALID,24.0716,VALID,346,VALID,0.618359,
2010-12-25, 00:43:04,VALID,1000.12,VALID,0,INVALID,163.731,VALID,0,VALID,24.0716,VALID,345,VALID,0.500781,
2010-12-25, 00:44:04,VALID,1000.1,VALID,0,INVALID,163.701,VALID,0,VALID,24.0326,VALID,346,VALID,0.526953,
2010-12-25, 00:45:04,VALID,1000.08,VALID,0,INVALID,163.693,VALID,0.100563,VALID,23.9742,VALID,353,VALID,0.859766,
2010-12-25, 00:46:04,VALID,1000.06,VALID,0,INVALID,163.708,VALID,0,VALID,23.9353,VALID,356,VALID,0.641797,
2010-12-25, 00:47:04,VALID,1000.08,VALID,0,INVALID,163.723,VALID,0,VALID,23.9177,VALID,355,VALID,0.425781,
2010-12-25, 00:48:04,VALID,1000.06,VALID,0,INVALID,163.693,VALID,0,VALID,23.8964,VALID,346,VALID,0.533594,
2010-12-25, 00:49:04,VALID,1000.06,VALID,0,INVALID,163.731,VALID,0,VALID,23.9177,VALID,321,VALID,0.233984,
2010-12-25, 00:50:04,VALID,1000.05,VALID,0,INVALID,163.723,VALID,0,VALID,23.9177,VALID,321,VALID,0.121875,
2010-12-25, 00:51:04,VALID,1000.04,VALID,0,INVALID,163.693,VALID,0,VALID,23.8769,VALID,321,VALID,0,
2010-12-25, 00:52:04,VALID,1000.04,VALID,0,INVALID,163.716,VALID,0,VALID,23.8769,VALID,321,VALID,0.230859,
2010-12-25, 00:53:04,VALID,1000.02,VALID,0,INVALID,163.731,VALID,0,VALID,23.8964,VALID,334,VALID,0.353516,
2010-12-25, 00:54:04,VALID,1000.01,VALID,0,INVALID,163.678,VALID,0,VALID,23.9566,VALID,334,VALID,0.182812,
2010-12-25, 00:55:04,VALID,1000.01,VALID,0,INVALID,163.708,VALID,0,VALID,23.9548,VALID,334,VALID,0,
2010-12-25, 00:56:04,VALID,1000.04,VALID,0,INVALID,163.716,VALID,0,VALID,23.9742,VALID,334,VALID,0.00078125,
2010-12-25, 00:57:04,VALID,1000.01,VALID,0,INVALID,163.723,VALID,0,VALID,23.9955,VALID,334,VALID,0.13125,
2010-12-25, 00:58:04,VALID,1000,VALID,0,INVALID,163.716,VALID,0,VALID,23.9742,VALID,329,VALID,0.170312,
2010-12-25, 00:59:04,VALID,1000.02,VALID,0,INVALID,163.731,VALID,0,VALID,24.0345,VALID,329,VALID,0,
2010-12-25, 01:00:04,VALID,999.968,VALID,0,INVALID,163.723,VALID,0,VALID,24.0132,VALID,329,VALID,0.0941406,
2010-12-25, 01:01:04,VALID,999.983,VALID,0,INVALID,163.708,VALID,0,VALID,24.0521,VALID,328,VALID,0,
2010-12-25, 01:02:04,VALID,999.933,VALID,0,INVALID,163.708,VALID,0,VALID,24.1142,VALID,343,VALID,0.557031,
2010-12-25, 01:03:04,VALID,999.944,VALID,0,INVALID,163.693,VALID,0,VALID,24.1105,VALID,355,VALID,0.428906,
2010-12-25, 01:04:04,VALID,999.931,VALID,0,INVALID,163.708,VALID,0,VALID,24.1689,VALID,355,VALID,0.218359,
2010-12-25, 01:05:04,VALID,999.9,VALID,0,INVALID,163.731,VALID,0,VALID,24.2078,VALID,355,VALID,0.0183594,
2010-12-25, 01:06:04,VALID,999.899,VALID,0,INVALID,163.693,VALID,0,VALID,24.2273,VALID,349,VALID,0.669141,
2010-12-25, 01:07:04,VALID,999.866,VALID,0,INVALID,163.701,VALID,0,VALID,24.2468,VALID,342,VALID,0.263281,
2010-12-25, 01:08:04,VALID,999.878,VALID,0,INVALID,163.701,VALID,0,VALID,24.2449,VALID,342,VALID,0.0757812,
2010-12-25, 01:09:04,VALID,999.858,VALID,0,INVALID,163.708,VALID,0,VALID,24.2857,VALID,342,VALID,0.378125,
2010-12-25, 01:10:04,VALID,999.844,VALID,0,INVALID,163.716,VALID,0,VALID,24.307,VALID,345,VALID,0.792969,
2010-12-25, 01:11:04,VALID,999.832,VALID,0,INVALID,163.693,VALID,0,VALID,24.3246,VALID,351,VALID,0.792188,
2010-12-25, 01:12:04,VALID,999.785,VALID,0,INVALID,163.685,VALID,0,VALID,24.4025,VALID,353,VALID,0.136719,
2010-12-25, 01:13:04,VALID,999.79,VALID,0,INVALID,163.678,VALID,0,VALID,24.422,VALID,355,VALID,0.958594,
2010-12-25, 01:14:04,VALID,999.786,VALID,0,INVALID,163.655,VALID,0,VALID,24.4998,VALID,357,VALID,0.614844,
2010-12-25, 01:15:04,VALID,999.738,VALID,0,INVALID,163.655,VALID,0,VALID,24.5582,VALID,357,VALID,0.139453,
2010-12-25, 01:16:04,VALID,999.767,VALID,0,INVALID,163.685,VALID,0,VALID,24.5777,VALID,357,VALID,0.304688,
2010-12-25, 01:17:04,VALID,999.716,VALID,0,INVALID,163.67,VALID,0,VALID,24.599,VALID,357,VALID,0,
2010-12-25, 01:18:04,VALID,999.693,VALID,0,INVALID,163.678,VALID,0,VALID,24.5582,VALID,357,VALID,0.0015625,
2010-12-25, 01:19:04,VALID,999.717,VALID,0,INVALID,163.639,VALID,0,VALID,24.599,VALID,357,VALID,0.171484,
2010-12-25, 01:20:04,VALID,999.705,VALID,0,INVALID,163.708,VALID,0,VALID,24.5582,VALID,357,VALID,0.00195313,
2010-12-25, 01:21:04,VALID,999.708,VALID,0,INVALID,163.67,VALID,0,VALID,24.5388,VALID,357,VALID,0,
2010-12-25, 01:22:04,VALID,999.687,VALID,0,INVALID,163.67,VALID,0,VALID,24.5193,VALID,357,VALID,0.233594,
2010-12-25, 01:23:04,VALID,999.674,VALID,0,INVALID,163.678,VALID,0,VALID,24.5193,VALID,357,VALID,0.0699219,
2010-12-25, 01:24:04,VALID,999.683,VALID,0,INVALID,163.708,VALID,0,VALID,24.4998,VALID,357,VALID,0.419922,
2010-12-25, 01:25:04,VALID,999.649,VALID,0,INVALID,163.685,VALID,0,VALID,24.4609,VALID,357,VALID,0.220703,
2010-12-25, 01:26:04,VALID,999.636,VALID,0,INVALID,163.678,VALID,0,VALID,24.4628,VALID,357,VALID,0.335938,
2010-12-25, 01:27:04,VALID,999.662,VALID,0,INVALID,163.685,VALID,0,VALID,24.4238,VALID,357,VALID,0.191797,
2010-12-25, 01:28:04,VALID,999.627,VALID,0,INVALID,163.685,VALID,0,VALID,24.383,VALID,357,VALID,0.225391,
2010-12-25, 01:29:04,VALID,999.61,VALID,0,INVALID,163.678,VALID,0,VALID,24.3636,VALID,357,VALID,0.510156,
2010-12-25, 01:30:04,VALID,999.578,VALID,0,INVALID,163.708,VALID,0,VALID,24.3246,VALID,351,VALID,0.421094,
2010-12-25, 01:31:04,VALID,999.574,VALID,0,INVALID,163.693,VALID,0,VALID,24.2857,VALID,351,VALID,0.391797,
2010-12-25, 01:32:04,VALID,999.492,VALID,0,INVALID,163.701,VALID,0,VALID,24.2857,VALID,351,VALID,0.0714844,
2010-12-25, 01:33:04,VALID,999.498,VALID,0,INVALID,163.708,VALID,0,VALID,24.3052,VALID,351,VALID,0,
2010-12-25, 01:34:04,VALID,999.494,VALID,0,INVALID,163.701,VALID,0,VALID,24.2662,VALID,351,VALID,0.639453,
2010-12-25, 01:35:04,VALID,999.437,VALID,0,INVALID,163.723,VALID,0,VALID,24.2468,VALID,350,VALID,0.446094,
2010-12-25, 01:36:04,VALID,999.44,VALID,0,INVALID,163.67,VALID,0,VALID,24.2468,VALID,350,VALID,0.445703,
2010-12-25, 01:37:04,VALID,999.45,VALID,0,INVALID,163.685,VALID,0,VALID,24.2662,VALID,350,VALID,0.393359,
2010-12-25, 01:38:04,VALID,999.389,VALID,0,INVALID,163.685,VALID,0,VALID,24.2857,VALID,350,VALID,0,
2010-12-25, 01:39:04,VALID,999.361,VALID,0,INVALID,163.685,VALID,0,VALID,24.2857,VALID,350,VALID,0.508984,
2010-12-25, 01:40:04,VALID,999.365,VALID,0,INVALID,163.678,VALID,0,VALID,24.2468,VALID,347,VALID,0.370313,
2010-12-25, 01:41:04,VALID,999.346,VALID,0,INVALID,163.739,VALID,0,VALID,24.2273,VALID,347,VALID,0.529297,
2010-12-25, 01:42:04,VALID,999.342,VALID,0,INVALID,163.701,VALID,0,VALID,24.2486,VALID,348,VALID,0.562891,
2010-12-25, 01:43:04,VALID,999.309,VALID,0,INVALID,163.708,VALID,0,VALID,24.2078,VALID,339,VALID,0.719531,
2010-12-25, 01:44:04,VALID,999.303,VALID,0,INVALID,163.685,VALID,0,VALID,24.2273,VALID,343,VALID,0.527734,
2010-12-25, 01:45:04,VALID,999.287,VALID,0,INVALID,163.685,VALID,0,VALID,24.2486,VALID,245,VALID,0.537109,
2010-12-25, 01:46:04,VALID,999.278,VALID,0,INVALID,163.716,VALID,0,VALID,24.2468,VALID,232,VALID,0.121875,
2010-12-25, 01:47:04,VALID,999.288,VALID,0,INVALID,163.701,VALID,0,VALID,24.2468,VALID,286,VALID,0.646484,
2010-12-25, 01:48:04,VALID,999.265,VALID,0,INVALID,163.701,VALID,0,VALID,24.3246,VALID,350,VALID,0.319531,
2010-12-25, 01:49:04,VALID,999.296,VALID,0,INVALID,163.693,VALID,0,VALID,24.383,VALID,350,VALID,0.009375,
2010-12-25, 01:50:04,VALID,999.3,VALID,0,INVALID,163.678,VALID,0,VALID,24.4025,VALID,350,VALID,0,
2010-12-25, 01:51:04,VALID,999.286,VALID,0,INVALID,163.708,VALID,0,VALID,24.4025,VALID,350,VALID,0,
2010-12-25, 01:52:04,VALID,999.318,VALID,0,INVALID,163.678,VALID,0,VALID,24.4646,VALID,281,VALID,0.484375,
2010-12-25, 01:53:04,VALID,999.332,VALID,0,INVALID,163.693,VALID,0,VALID,24.4804,VALID,301,VALID,0.675781,
2010-12-25, 01:54:04,VALID,999.373,VALID,0,INVALID,163.647,VALID,0,VALID,24.5777,VALID,296,VALID,0.578906,
2010-12-25, 01:55:04,VALID,999.356,VALID,0,INVALID,163.67,VALID,0,VALID,24.6342,VALID,19,VALID,0.314453,
2010-12-25, 01:56:05,VALID,999.357,VALID,0,INVALID,163.662,VALID,0,VALID,24.7548,VALID,336,VALID,0.436328,
2010-12-25, 01:57:05,VALID,999.336,VALID,0,INVALID,163.647,VALID,0,VALID,24.7937,VALID,335,VALID,0.242578,
2010-12-25, 01:58:05,VALID,999.3,VALID,0,INVALID,163.662,VALID,0,VALID,24.8113,VALID,270,VALID,0.930469,
2010-12-25, 01:59:05,VALID,999.281,VALID,0,INVALID,163.624,VALID,0,VALID,24.9282,VALID,269,VALID,1.28984,
2010-12-25, 02:00:05,VALID,999.266,VALID,0,INVALID,157.819,VALID,0,VALID,25.0431,VALID,296,VALID,0.579297,
2010-12-25, 02:01:05,VALID,999.283,VALID,0,INVALID,136.885,VALID,0,VALID,25.1423,VALID,318,VALID,0.486328,
2010-12-25, 02:02:05,VALID,999.247,VALID,0,INVALID,127.418,VALID,0,VALID,25.1832,VALID,286,VALID,0.753906,
2010-12-25, 02:03:05,VALID,999.251,VALID,0,INVALID,120.941,VALID,0,VALID,25.2007,VALID,292,VALID,1.31445,
2010-12-25, 02:04:05,VALID,999.249,VALID,0,INVALID,113.205,VALID,0,VALID,25.2786,VALID,288,VALID,1.30469,
2010-12-25, 02:05:05,VALID,999.225,VALID,0,VALID,104,VALID,0,VALID,25.4169,VALID,289,VALID,0.571875,
2010-12-25, 02:06:05,VALID,999.211,VALID,0,VALID,104,VALID,0,VALID,25.4753,VALID,331,VALID,0.826563,
2010-12-25, 02:07:05,VALID,999.156,VALID,0,VALID,104,VALID,0,VALID,25.4928,VALID,290,VALID,1.07266,
2010-12-25, 02:08:05,VALID,999.141,VALID,0,VALID,103.394,VALID,0,VALID,25.5123,VALID,308,VALID,1.10391,
2010-12-25, 02:09:05,VALID,999.139,VALID,0,VALID,102.067,VALID,0,VALID,25.5707,VALID,328,VALID,0.821484,
2010-12-25, 02:10:05,VALID,999.096,VALID,0,VALID,101.243,VALID,0,VALID,25.5902,VALID,340,VALID,0.8,
2010-12-25, 02:11:05,VALID,999.117,VALID,0,VALID,102.288,VALID,0,VALID,25.5902,VALID,356,VALID,0.702344,
2010-12-25, 02:12:05,VALID,999.079,VALID,0,VALID,102.83,VALID,0,VALID,25.5337,VALID,356,VALID,0.932422,
2010-12-25, 02:13:05,VALID,999.089,VALID,0,VALID,102.86,VALID,0,VALID,25.4948,VALID,354,VALID,1.09609,
2010-12-25, 02:14:05,VALID,999.108,VALID,0,VALID,103.524,VALID,0,VALID,25.4558,VALID,359,VALID,0.547266,
2010-12-25, 02:15:05,VALID,999.127,VALID,0,VALID,104,VALID,0,VALID,25.3974,VALID,359,VALID,0.00117188,
2010-12-25, 02:16:05,VALID,999.131,VALID,0,VALID,104,VALID,0,VALID,25.337,VALID,4,VALID,0.301562,
2010-12-25, 02:17:05,VALID,999.132,VALID,0,VALID,104,VALID,0,VALID,25.2786,VALID,299,VALID,1.03516,
2010-12-25, 02:18:05,VALID,999.149,VALID,0,VALID,104,VALID,0,VALID,25.3,VALID,301,VALID,0.507031,
2010-12-25, 02:19:05,VALID,999.137,VALID,0,VALID,104,VALID,0,VALID,25.2981,VALID,320,VALID,0.484375,
2010-12-25, 02:20:05,VALID,999.133,VALID,0,VALID,104,VALID,0,VALID,25.3195,VALID,300,VALID,0.269922,
2010-12-25, 02:21:05,VALID,999.122,VALID,0,VALID,103.356,VALID,0,VALID,25.3176,VALID,297,VALID,0.871875,
2010-12-25, 02:22:05,VALID,999.094,VALID,0,VALID,102.799,VALID,0,VALID,25.339,VALID,320,VALID,0.621094,
2010-12-25, 02:23:05,VALID,999.081,VALID,0,VALID,102.494,VALID,0,VALID,25.337,VALID,294,VALID,0.390234,
2010-12-25, 02:24:05,VALID,999.082,VALID,0,VALID,102.082,VALID,0,VALID,25.3974,VALID,268,VALID,0.763281,
2010-12-25, 02:25:05,VALID,999.055,VALID,0,VALID,101.945,VALID,0,VALID,25.376,VALID,292,VALID,0.580469,
2010-12-25, 02:26:05,VALID,999.037,VALID,0,VALID,102.181,VALID,0,VALID,25.3974,VALID,290,VALID,0.449219,
2010-12-25, 02:27:05,VALID,999.031,VALID,0,VALID,102.387,VALID,0,VALID,25.4169,VALID,289,VALID,0.550391,
2010-12-25, 02:28:05,VALID,999.016,VALID,0,VALID,103.501,VALID,0,VALID,25.3565,VALID,290,VALID,0.265625,
2010-12-25, 02:29:05,VALID,998.968,VALID,0,VALID,102.845,VALID,0,VALID,25.337,VALID,255,VALID,0.452344,
2010-12-25, 02:30:05,VALID,998.993,VALID,0,VALID,103.036,VALID,0,VALID,25.339,VALID,229,VALID,0.416406,
2010-12-25, 02:31:05,VALID,998.948,VALID,0,VALID,102.288,VALID,0,VALID,25.339,VALID,282,VALID,0.746875,
2010-12-25, 02:32:05,VALID,998.905,VALID,0,VALID,102.013,VALID,0,VALID,25.3195,VALID,271,VALID,0.441016,
2010-12-25, 02:33:05,VALID,998.915,VALID,0,VALID,102.425,VALID,0,VALID,25.339,VALID,357,VALID,0.600781,
2010-12-25, 02:34:05,VALID,998.898,VALID,0,VALID,103.684,VALID,0,VALID,25.2981,VALID,354,VALID,0.137891,
2010-12-25, 02:35:05,VALID,998.869,VALID,0,VALID,104,VALID,0,VALID,25.2397,VALID,354,VALID,0.342187,
2010-12-25, 02:36:05,VALID,998.856,VALID,0,VALID,104,VALID,0,VALID,25.2416,VALID,354,VALID,0.138281,
2010-12-25, 02:37:05,VALID,998.864,VALID,0,VALID,103.776,VALID,0,VALID,25.2202,VALID,318,VALID,0.431641,
2010-12-25, 02:38:05,VALID,998.849,VALID,0,VALID,103.394,VALID,0,VALID,25.2592,VALID,312,VALID,0.320313,
2010-12-25, 02:39:05,VALID,998.828,VALID,0,VALID,102.753,VALID,0,VALID,25.2786,VALID,203,VALID,0.762891,
2010-12-25, 02:40:05,VALID,998.803,VALID,0,VALID,102.158,VALID,0,VALID,25.3195,VALID,214,VALID,0.391406,
2010-12-25, 02:41:05,VALID,998.794,VALID,0,VALID,100.381,VALID,0,VALID,25.4169,VALID,282,VALID,0.708203,
2010-12-25, 02:42:05,VALID,998.796,VALID,0,VALID,98.8703,VALID,0,VALID,25.5337,VALID,262,VALID,0.521875,
2010-12-25, 02:43:05,VALID,998.785,VALID,0,VALID,97.6497,VALID,0,VALID,25.6506,VALID,261,VALID,0.515625,
2010-12-25, 02:44:05,VALID,998.767,VALID,0,VALID,96.1926,VALID,0,VALID,25.7265,VALID,298,VALID,0.639453,
2010-12-25, 02:45:05,VALID,998.729,VALID,0,VALID,94.5066,VALID,0,VALID,25.8648,VALID,238,VALID,1.35586,
2010-12-25, 02:46:05,VALID,998.748,VALID,0,VALID,94.0717,VALID,0,VALID,25.9817,VALID,231,VALID,0.353516,
2010-12-25, 02:47:05,VALID,998.733,VALID,0,VALID,93.4309,VALID,0,VALID,26.0596,VALID,231,VALID,0.262109,
2010-12-25, 02:48:05,VALID,998.702,VALID,0,VALID,93.4767,VALID,0,VALID,26.0985,VALID,226,VALID,0.316797,
2010-12-25, 02:49:05,VALID,998.723,VALID,0,VALID,92.6299,VALID,0,VALID,26.118,VALID,233,VALID,0.691406,
2010-12-25, 02:50:05,VALID,998.708,VALID,0,VALID,92.073,VALID,0,VALID,26.1355,VALID,223,VALID,0.198828,
2010-12-25, 02:51:05,VALID,998.69,VALID,0,VALID,91.5466,VALID,0,VALID,26.1765,VALID,210,VALID,0.238672,
2010-12-25, 02:52:05,VALID,998.704,VALID,0,VALID,91.9509,VALID,0,VALID,26.1959,VALID,186,VALID,0.00820312,
2010-12-25, 02:53:05,VALID,998.663,VALID,0,VALID,90.6464,VALID,0,VALID,26.2154,VALID,288,VALID,0.676562,
2010-12-25, 02:54:05,VALID,998.677,VALID,0,VALID,90.3488,VALID,0,VALID,26.2759,VALID,244,VALID,0.728125,
2010-12-25, 02:55:05,VALID,998.674,VALID,0,VALID,90.036,VALID,0.100563,VALID,26.2913,VALID,284,VALID,0.560547,
2010-12-25, 02:56:05,VALID,998.656,VALID,0,VALID,89.4257,VALID,0.100563,VALID,26.3303,VALID,234,VALID,1.08242,
2010-12-25, 02:57:05,VALID,998.663,VALID,0,VALID,88.9146,VALID,0.100563,VALID,26.3693,VALID,247,VALID,0.970312,
2010-12-25, 02:58:05,VALID,998.633,VALID,0,VALID,88.6628,VALID,0.100563,VALID,26.4277,VALID,224,VALID,0.626562,
2010-12-25, 02:59:05,VALID,998.645,VALID,0,VALID,88.8002,VALID,0,VALID,26.4472,VALID,265,VALID,0.44375,
2010-12-25, 03:00:05,VALID,998.639,VALID,0,VALID,88.6247,VALID,0,VALID,26.4667,VALID,273,VALID,0.927344,
2010-12-25, 03:01:05,VALID,998.628,VALID,0,VALID,88.8002,VALID,0,VALID,26.4472,VALID,285,VALID,0.326953,
2010-12-25, 03:02:05,VALID,998.653,VALID,0,VALID,89.3952,VALID,0.100563,VALID,26.4062,VALID,318,VALID,0.331641,
2010-12-25, 03:03:05,VALID,998.623,VALID,0,VALID,89.6393,VALID,0,VALID,26.4082,VALID,264,VALID,0.725391,
2010-12-25, 03:04:05,VALID,998.616,VALID,0,VALID,89.7233,VALID,0,VALID,26.3887,VALID,275,VALID,0.558594,
2010-12-25, 03:05:05,VALID,998.619,VALID,0,VALID,89.9826,VALID,0,VALID,26.3673,VALID,309,VALID,0.15625,
2010-12-25, 03:06:05,VALID,998.622,VALID,0,VALID,89.6622,VALID,0.100563,VALID,26.3693,VALID,298,VALID,0.540625,
2010-12-25, 03:07:05,VALID,998.581,VALID,0,VALID,89.8072,VALID,0,VALID,26.3887,VALID,212,VALID,0.491016,
2010-12-25, 03:08:05,VALID,998.581,VALID,0,VALID,90.036,VALID,0,VALID,26.3867,VALID,247,VALID,1.28984,
2010-12-25, 03:09:05,VALID,998.6,VALID,0,VALID,90.1657,VALID,0,VALID,26.4082,VALID,288,VALID,0.341406,
2010-12-25, 03:10:05,VALID,998.589,VALID,0,VALID,89.8606,VALID,0.100563,VALID,26.4082,VALID,277,VALID,0.419922,
2010-12-25, 03:11:05,VALID,998.559,VALID,0,VALID,90.2725,VALID,0,VALID,26.3887,VALID,273,VALID,0.602734,
2010-12-25, 03:12:05,VALID,998.597,VALID,0,VALID,90.4404,VALID,0,VALID,26.3887,VALID,284,VALID,0.371094,
2010-12-25, 03:13:05,VALID,998.587,VALID,0,VALID,90.0971,VALID,0,VALID,26.3907,VALID,221,VALID,0.446484,
2010-12-25, 03:14:05,VALID,998.601,VALID,0,VALID,89.8072,VALID,0,VALID,26.3887,VALID,275,VALID,0.826563,
2010-12-25, 03:15:05,VALID,998.588,VALID,0,VALID,89.2808,VALID,0,VALID,26.4082,VALID,286,VALID,0.961328,
2010-12-25, 03:16:05,VALID,998.602,VALID,0,VALID,88.8917,VALID,0,VALID,26.4277,VALID,279,VALID,0.641797,
2010-12-25, 03:17:05,VALID,998.564,VALID,0,VALID,89.2121,VALID,0,VALID,26.4277,VALID,301,VALID,0.671094,
2010-12-25, 03:18:05,VALID,998.554,VALID,0,VALID,88.968,VALID,0.100563,VALID,26.4277,VALID,208,VALID,0.389453,
2010-12-25, 03:19:05,VALID,998.588,VALID,0,VALID,88.6476,VALID,0.100563,VALID,26.4472,VALID,305,VALID,0.321094,
2010-12-25, 03:20:05,VALID,998.609,VALID,0,VALID,88.6018,VALID,0,VALID,26.4881,VALID,181,VALID,0.484375,
2010-12-25, 03:21:05,VALID,998.574,VALID,0,VALID,88.5789,VALID,0,VALID,26.4861,VALID,299,VALID,0.933984,
2010-12-25, 03:22:05,VALID,998.602,VALID,0,VALID,88.3424,VALID,0.100563,VALID,26.5271,VALID,301,VALID,1.20977,
2010-12-25, 03:23:05,VALID,998.628,VALID,0,VALID,88.7773,VALID,0,VALID,26.5271,VALID,309,VALID,0.615234,
2010-12-25, 03:24:05,VALID,998.604,VALID,0,VALID,88.7162,VALID,0,VALID,26.5251,VALID,4,VALID,0.831641,
2010-12-25, 03:25:05,VALID,998.632,VALID,0,VALID,88.6018,VALID,0,VALID,26.5076,VALID,311,VALID,0.602734,
2010-12-25, 03:26:05,VALID,998.628,VALID,0,VALID,88.8841,VALID,0,VALID,26.4881,VALID,321,VALID,0.471484,
2010-12-25, 03:27:05,VALID,998.653,VALID,0,VALID,89.2655,VALID,0,VALID,26.4687,VALID,329,VALID,0.744141,
2010-12-25, 03:28:05,VALID,998.622,VALID,0,VALID,89.5783,VALID,0,VALID,26.4102,VALID,312,VALID,0.602734,
2010-12-25, 03:29:05,VALID,998.631,VALID,0,VALID,90.3717,VALID,0,VALID,26.3927,VALID,339,VALID,0.940625,
2010-12-25, 03:30:05,VALID,998.613,VALID,0,VALID,90.9363,VALID,0,VALID,26.2933,VALID,310,VALID,0.400391,
2010-12-25, 03:31:05,VALID,998.648,VALID,0,VALID,91.5008,VALID,0,VALID,26.2544,VALID,324,VALID,0.370703,
2010-12-25, 03:32:05,VALID,998.637,VALID,0,VALID,92.3476,VALID,0,VALID,26.1959,VALID,298,VALID,0.526953,
2010-12-25, 03:33:05,VALID,998.624,VALID,0,VALID,92.729,VALID,0,VALID,26.0985,VALID,360,VALID,0.479688,
2010-12-25, 03:34:05,VALID,998.631,VALID,0,VALID,93.1944,VALID,0,VALID,26.0616,VALID,354,VALID,1.12969,
2010-12-25, 03:35:05,VALID,998.651,VALID,0,VALID,93.6826,VALID,0,VALID,25.9817,VALID,340,VALID,0.194141,
2010-12-25, 03:36:05,VALID,998.638,VALID,0,VALID,93.1791,VALID,0,VALID,25.9622,VALID,291,VALID,1.8332,
2010-12-25, 03:37:05,VALID,998.636,VALID,0,VALID,92.3705,VALID,0,VALID,26.0596,VALID,338,VALID,0.774219,
2010-12-25, 03:38:05,VALID,998.626,VALID,0,VALID,92.4849,VALID,0,VALID,26.0985,VALID,324,VALID,0.319922,
2010-12-25, 03:39:05,VALID,998.643,VALID,0,VALID,93.1105,VALID,0,VALID,26.0596,VALID,280,VALID,0.653906,
2010-12-25, 03:40:05,VALID,998.656,VALID,0,VALID,93.3928,VALID,0.100563,VALID,26.0576,VALID,340,VALID,0.429297,
2010-12-25, 03:41:05,VALID,998.646,VALID,0,VALID,93.6674,VALID,0,VALID,26.0576,VALID,305,VALID,0.604297,
2010-12-25, 03:42:05,VALID,998.644,VALID,0,VALID,93.8276,VALID,0.100563,VALID,26.0381,VALID,326,VALID,0.451953,